User: anonymous   Login
Location: Emerald Isle
(34.6779°N, 76.9508°W)
Time: 09:44:52
(UTC-05:00)
Language:

CENTAUR R/B - Orbit

View from above orbital plane
View from above orbital plane
View from above satellite
View from above satellite

Ground track
Ground track

The orbit data is extracted from the following two-line orbital elements,

1 26906U 01040B   17350.82683424 0.00000000  00000-0  00000-0 0    04
2 26906  63.4580 225.1486 0364000 341.2365  18.7635 13.44019455    02
Epoch (UTC): 16 December 2017 19:50:38
Eccentricity: 0.0364000
inclination: 63.4580°
perigee height: 822 km
apogee height: 1366 km
right ascension of ascending node: 225.1486°
argument of perigee: 341.2365°
revolutions per day: 13.44019455
mean anomaly at epoch: 18.7635°
orbit number at epoch: 0

The dashed part of the orbit path shows where the satellite is in the earth's shadow,  

DLR